Regional Weather Roundup
Issued by NWS Sterling, VA

Home | Current Version | Previous Version | Text Only | Print | Product List | Glossary Off
Versions: 1 2 3 4 5 6 7 8 9 10 11 12 13 14 15 16 17 18 19 20 21 22 23 24 25 26 27 28 29 30 31 32 33 34 35 36 37 38 39 40 41 42 43 44 45 46 47 48 49 50

000
ASUS41 KLWX 010010
RWRLWX

REGIONAL WEATHER ROUNDUP
NATIONAL WEATHER SERVICE BALTIMORE MD/WASHINGTON DC
800 PM EDT TUE SEP 30 2014

Note: "FAIR" indicates few or no clouds below 12,000 feet
with no significant weather and/or obstructions to visibility.
 TC=TEMPERATURE CELSIUS

 * =Non NWS site. Station does not report precipitation (e.g. rain,
    snow, etc.), thunder, or fog.

DCZ001-MDZ009-015-VAZ040>042-051-053>054-010100-
WASHINGTON METRO

CITY           SKY/WX    TMP DP  RH WIND       PRES   REMARKS
WASHINGTON NAT PTCLDY    72  62  71 S5        29.89R
DULLES         PTCLDY    62  59  90 CALM      29.90R
ANDREWS AFB    CLEAR     65  58  79 S3        29.89R
QUANTICO       CLEAR     66  63  90 NW3       29.90R
COLLEGE PARK*  CLEAR     64  61  88 CALM      29.89R
LEESBURG*      MOCLDY    66  64  94 W3        29.91R
MANASSAS*      CLEAR     64  64 100 CALM      29.89R
GAITHERSBURG*  PTCLDY    66  59  77 CALM      29.94R

$$

MDZ006>007-011-014-010100-
BALTIMORE METRO

CITY           SKY/WX    TMP DP  RH WIND       PRES   REMARKS
BWI AIRPORT    PTCLDY    67  60  78 CALM      29.89R
MD SCIENCE CTR   N/A     73  60  63 MISG      29.90R
MARTIN STATE   PTCLDY    72  64  78 E6        29.92R
ANNAPOLIS      CLEAR     70  63  78 E7        29.89R
FORT MEADE*    CLEAR     61  59  94 CALM      29.91S

$$

MDZ012-015-019>023-010100-
MARYLAND EASTERN SHORE

CITY           SKY/WX    TMP DP  RH WIND       PRES   REMARKS
OCEAN CITY     CLEAR     69  62  78 E7        29.90R
SALISBURY      CLEAR     68  62  81 E3        29.90R
BAY BRIDGE AP*   N/A     70  61  73 E7        29.89S
CAMBRIDGE*     CLOUDY    72  63  73 SE6       29.90R
EASTON*        PTCLDY    70  63  78 E3        29.94R

$$

MDZ017>025-010100-
SOUTHERN MARYLAND

CITY           SKY/WX    TMP DP  RH WIND       PRES   REMARKS
PATUXENT RIVER PTCLDY    64  60  87 S3        29.89R
ST INIGOES     CLEAR     64  60  87 CALM      29.88S
LEONARDTOWN*   CLEAR     64  61  88 CALM      29.91R

$$

MDZ003>005-010100-
NORTH CENTRAL MARYLAND

CITY           SKY/WX    TMP DP  RH WIND       PRES   REMARKS
FREDERICK*     MOCLDY    70  64  83 CALM      29.92R
HAGERSTOWN APT TSTM      64  59  83 NW12G20   29.94R
WESTMINSTER*   PTCLDY    68  57  68 CALM      29.91R

$$

MDZ501>502-010100-
WESTERN MARYLAND

CITY           SKY/WX    TMP DP  RH WIND       PRES   REMARKS
OAKLAND*       CLOUDY    52 N/A N/A SW5       29.97S
CUMBERLAND*    CLOUDY    68  50  52 CALM      29.95R

$$

VAZ025>031-010100-
SHENANDOAH VALLEY

CITY           SKY/WX    TMP DP  RH WIND       PRES   REMARKS
WINCHESTER*    TSTM      63  59  88 CALM      29.94R
STAUNTON*      PTCLDY    67  58  74 CALM      29.91S

$$

WVZ021-048>050-054>055-010100-
EASTERN WEST VIRGINIA PANHANDLE

CITY           SKY/WX    TMP DP  RH WIND       PRES   REMARKS
MARTINSBURG    LGT RAIN  65  61  87 SE5       29.93R FOG
PETERSBURG*    CLOUDY   N/A N/A N/A NW3       29.92R

$$

VAZ036>039-050-010100-
CENTRAL FOOTHILLS

CITY           SKY/WX    TMP DP  RH WIND       PRES   REMARKS
CHARLOTTESVILL MOCLDY    64  61  90 CALM      29.91R
ORANGE*        CLEAR     61  59  94 CALM      29.92S

$$

VAZ055>057-010100-
NORTH AND CENTRAL PIEDMONT

CITY           SKY/WX    TMP DP  RH WIND       PRES   REMARKS
FREDERICKSBRG* MOCLDY    69  63  83 CALM      29.89R
STAFFORD*      PTCLDY    63  63 100 CALM      29.93R FOG

$$

NCZ024-NYZ072-PAZ021-071-VAZ022-071-010100-
OTHER REGIONAL OBSERVATIONS

CITY           SKY/WX    TMP DP  RH WIND       PRES   REMARKS
NEW YORK CITY  CLOUDY    66  57  72 NE7       29.98S
PHILADELPHIA   MOCLDY    68  59  73 E9        29.94R
PITTSBURGH     PTCLDY    63  58  83 CALM      29.92R
ROANOKE        PTCLDY    72  56  57 S5        29.91R
RICHMOND       CLEAR     65  61  87 CALM      29.89S
RALEIGH        PTCLDY    65  62  90 CALM      29.89R

$$

ANZ530>537-010100-
MARINE OBSERVATIONS

STATION/POSITION TIME  TEMP    WIND        PRES
                       AIR SEA DIR/SP/G
                 (UTC) (F)     (DEG/KT/KT) (MB)
THOMAS PT LIGHT  0000   72 72   60/  8/  9 1013.2R
BALT KEY BRIDGE  0000   72     140/  4/  4 1011.7F
COVE POINT       0000   70     200/  2/  3 1011.9R
LEWISETTA        0000   70 72  150/  3/  4 1011.6S
SOLOMONS ISLAND  0000      74                N/A
PINEY POINT      0000          160/  5/  5   N/A

$$



USA.gov is the U.S. government's official web portal to all federal, state and local government web resources and services.